Precipitable_Water
0.31 0.32 0.30 0.26 0.27 0.30 0.30 0.28 0.24 0.23 0.26 0.28 0.37 0.39 0.44 0.48 0.49 0.48 0.47 0.47 0.46 0.43 0.40 0.39 0.38 0.37 0.36 0.33 0.31 0.30 0.30 0.29 0.30 0.32 0.32 0.33 0.32 0.32 0.33 0.35 0.37 0.39 0.42 0.50
0.25 0.29 0.32 0.31 0.32 0.29 0.29 0.29 0.29 0.31 0.31 0.37 0.44 0.45 0.46 0.47 0.47 0.46 0.46 0.46 0.46 0.43 0.41 0.38 0.36 0.35 0.34 0.31 0.30 0.31 0.30 0.30 0.32 0.32 0.32 0.33 0.33 0.32 0.32 0.33 0.35 0.38 0.40 0.45
0.15 0.27 0.31 0.26 0.26 0.32 0.33 0.34 0.32 0.28 0.28 0.38 0.39 0.41 0.43 0.47 0.48 0.47 0.47 0.46 0.46 0.43 0.39 0.36 0.35 0.34 0.30 0.29 0.31 0.31 0.31 0.32 0.32 0.32 0.33 0.34 0.34 0.32 0.32 0.32 0.35 0.36 0.38 0.41
0.19 0.25 0.19 0.30 0.35 0.35 0.33 0.31 0.35 0.33 0.33 0.37 0.40 0.45 0.49 0.50 0.51 0.49 0.50 0.48 0.44 0.38 0.36 0.35 0.33 0.30 0.29 0.30 0.31 0.31 0.31 0.31 0.32 0.33 0.33 0.34 0.33 0.32 0.33 0.33 0.34 0.35 0.36 0.40
0.19 0.20 0.27 0.31 0.32 0.29 0.28 0.24 0.31 0.31 0.34 0.38 0.43 0.46 0.45 0.48 0.50 0.50 0.47 0.44 0.40 0.38 0.36 0.33 0.29 0.30 0.29 0.30 0.31 0.30 0.30 0.31 0.32 0.33 0.33 0.33 0.33 0.32 0.33 0.33 0.33 0.35 0.37 0.39
0.19 0.19 0.18 0.26 0.30 0.35 0.33 0.19 0.31 0.32 0.33 0.37 0.41 0.32 0.37 0.45 0.47 0.46 0.44 0.40 0.38 0.37 0.32 0.28 0.28 0.29 0.29 0.29 0.30 0.30 0.31 0.32 0.33 0.33 0.33 0.33 0.34 0.33 0.34 0.34 0.34 0.35 0.36 0.39
0.18 0.19 0.24 0.31 0.33 0.35 0.21 0.23 0.34 0.34 0.35 0.36 0.34 0.38 0.42 0.46 0.45 0.44 0.40 0.39 0.36 0.30 0.27 0.28 0.29 0.30 0.29 0.29 0.29 0.31 0.32 0.33 0.33 0.33 0.33 0.34 0.36 0.35 0.34 0.33 0.35 0.35 0.36 0.38
0.21 0.19 0.16 0.34 0.34 0.28 0.32 0.37 0.37 0.38 0.38 0.36 0.39 0.40 0.42 0.42 0.40 0.39 0.35 0.32 0.28 0.26 0.27 0.29 0.29 0.29 0.28 0.28 0.31 0.32 0.33 0.32 0.33 0.33 0.34 0.35 0.33 0.35 0.35 0.34 0.34 0.35 0.36 0.38
0.25 0.25 0.36 0.40 0.37 0.39 0.39 0.37 0.40 0.39 0.40 0.41 0.40 0.40 0.39 0.35 0.34 0.31 0.27 0.26 0.26 0.27 0.27 0.28 0.29 0.29 0.27 0.29 0.31 0.32 0.32 0.31 0.32 0.34 0.34 0.35 0.34 0.33 0.35 0.36 0.35 0.34 0.35 0.36
0.32 0.37 0.37 0.38 0.41 0.41 0.43 0.42 0.44 0.43 0.43 0.43 0.37 0.34 0.33 0.30 0.27 0.26 0.25 0.24 0.26 0.26 0.25 0.25 0.27 0.28 0.28 0.29 0.30 0.30 0.29 0.30 0.32 0.32 0.34 0.35 0.36 0.34 0.34 0.34 0.35 0.35 0.34 0.34
0.32 0.36 0.37 0.39 0.42 0.42 0.42 0.44 0.43 0.46 0.42 0.38 0.34 0.30 0.28 0.27 0.25 0.24 0.23 0.24 0.25 0.24 0.23 0.23 0.24 0.25 0.27 0.27 0.28 0.27 0.27 0.28 0.28 0.30 0.32 0.34 0.34 0.34 0.34 0.35 0.35 0.34 0.35 0.35
0.26 0.37 0.38 0.41 0.45 0.45 0.44 0.46 0.47 0.42 0.35 0.33 0.31 0.28 0.26 0.24 0.24 0.23 0.22 0.22 0.22 0.20 0.19 0.19 0.21 0.21 0.22 0.22 0.22 0.21 0.21 0.22 0.23 0.24 0.26 0.29 0.32 0.33 0.35 0.35 0.35 0.36 0.37 0.37
0.35 0.45 0.46 0.46 0.47 0.52 0.49 0.44 0.35 0.31 0.31 0.28 0.27 0.25 0.24 0.23 0.22 0.21 0.20 0.19 0.16 0.16 0.16 0.17 0.17 0.18 0.19 0.19 0.18 0.16 0.15 0.16 0.17 0.18 0.18 0.19 0.21 0.23 0.26 0.31 0.33 0.34 0.35 0.36
0.46 0.48 0.43 0.46 0.45 0.48 0.39 0.34 0.31 0.30 0.29 0.26 0.25 0.25 0.23 0.21 0.19 0.17 0.15 0.15 0.14 0.14 0.15 0.15 0.16 0.16 0.17 0.18 0.16 0.15 0.15 0.14 0.14 0.15 0.15 0.15 0.15 0.16 0.18 0.19 0.21 0.26 0.32 0.34
0.45 0.48 0.48 0.51 0.49 0.41 0.37 0.30 0.27 0.25 0.24 0.23 0.24 0.22 0.20 0.17 0.15 0.14 0.14 0.13 0.13 0.14 0.14 0.15 0.14 0.15 0.17 0.17 0.15 0.14 0.14 0.13 0.13 0.13 0.14 0.14 0.14 0.14 0.14 0.15 0.15 0.17 0.21 0.26
0.47 0.48 0.49 0.47 0.41 0.38 0.31 0.25 0.25 0.22 0.23 0.23 0.21 0.19 0.17 0.15 0.14 0.13 0.12 0.12 0.12 0.11 0.13 0.13 0.14 0.15 0.16 0.15 0.14 0.13 0.13 0.13 0.13 0.12 0.12 0.12 0.12 0.12 0.12 0.12 0.13 0.13 0.14 0.16
0.43 0.42 0.44 0.42 0.37 0.31 0.27 0.24 0.23 0.23 0.23 0.20 0.18 0.17 0.15 0.14 0.12 0.11 0.11 0.12 0.12 0.13 0.13 0.13 0.13 0.15 0.15 0.15 0.14 0.13 0.13 0.13 0.12 0.12 0.11 0.11 0.11 0.11 0.11 0.11 0.11 0.12 0.13 0.14
0.48 0.47 0.44 0.40 0.31 0.27 0.23 0.22 0.24 0.23 0.21 0.19 0.16 0.14 0.12 0.11 0.10 0.10 0.10 0.11 0.12 0.12 0.13 0.14 0.14 0.15 0.15 0.15 0.14 0.14 0.13 0.12 0.12 0.11 0.11 0.11 0.11 0.11 0.11 0.10 0.10 0.10 0.11 0.12
0.49 0.45 0.39 0.32 0.31 0.25 0.22 0.24 0.24 0.23 0.19 0.16 0.14 0.12 0.11 0.11 0.11 0.11 0.11 0.11 0.11 0.11 0.12 0.14 0.14 0.14 0.14 0.14 0.14 0.14 0.13 0.12 0.11 0.11 0.11 0.11 0.10 0.10 0.10 0.10 0.10 0.10 0.10 0.11
0.44 0.41 0.34 0.29 0.25 0.23 0.24 0.25 0.23 0.19 0.16 0.15 0.12 0.11 0.10 0.11 0.11 0.11 0.11 0.11 0.12 0.12 0.14 0.14 0.14 0.13 0.13 0.14 0.14 0.13 0.12 0.11 0.11 0.11 0.10 0.10 0.10 0.10 0.10 0.10 0.10 0.10 0.10 0.10
0.37 0.31 0.27 0.22 0.23 0.25 0.25 0.22 0.19 0.15 0.14 0.13 0.11 0.11 0.11 0.11 0.11 0.11 0.11 0.10 0.12 0.14 0.14 0.14 0.13 0.12 0.13 0.13 0.13 0.13 0.12 0.11 0.11 0.10 0.10 0.09 0.09 0.09 0.09 0.09 0.09 0.09 0.09 0.10
0.26 0.22 0.22 0.23 0.24 0.23 0.21 0.18 0.15 0.14 0.12 0.12 0.11 0.11 0.11 0.11 0.12 0.11 0.12 0.12 0.13 0.13 0.13 0.13 0.12 0.12 0.12 0.12 0.12 0.12 0.12 0.11 0.11 0.10 0.10 0.09 0.09 0.09 0.08 0.09 0.09 0.09 0.09 0.09
0.23 0.24 0.24 0.25 0.23 0.21 0.17 0.14 0.13 0.12 0.11 0.11 0.11 0.11 0.12 0.12 0.12 0.11 0.11 0.13 0.13 0.13 0.13 0.12 0.12 0.12 0.12 0.11 0.11 0.12 0.12 0.11 0.10 0.10 0.10 0.09 0.09 0.09 0.08 0.08 0.08 0.08 0.08 0.08
0.25 0.26 0.26 0.25 0.23 0.18 0.13 0.12 0.12 0.12 0.12 0.12 0.12 0.13 0.12 0.12 0.13 0.14 0.14 0.14 0.13 0.13 0.12 0.12 0.12 0.12 0.12 0.12 0.12 0.12 0.12 0.11 0.11 0.10 0.10 0.09 0.09 0.08 0.09 0.09 0.08 0.08 0.08 0.08
0.27 0.27 0.25 0.23 0.20 0.15 0.12 0.11 0.11 0.12 0.12 0.12 0.12 0.13 0.14 0.15 0.13 0.14 0.15 0.14 0.14 0.13 0.12 0.13 0.13 0.12 0.13 0.13 0.13 0.13 0.13 0.12 0.12 0.11 0.11 0.10 0.10 0.09 0.09 0.09 0.09 0.09 0.08 0.08
0.27 0.26 0.24 0.22 0.19 0.15 0.12 0.11 0.10 0.12 0.12 0.12 0.13 0.14 0.15 0.16 0.15 0.15 0.15 0.15 0.15 0.14 0.13 0.13 0.13 0.13 0.13 0.13 0.14 0.14 0.14 0.13 0.12 0.12 0.12 0.11 0.11 0.10 0.09 0.09 0.09 0.09 0.09 0.08
0.27 0.25 0.22 0.21 0.19 0.15 0.12 0.11 0.10 0.11 0.12 0.12 0.12 0.14 0.15 0.15 0.14 0.14 0.14 0.15 0.15 0.15 0.15 0.15 0.14 0.14 0.14 0.14 0.14 0.14 0.14 0.13 0.13 0.13 0.12 0.12 0.11 0.11 0.10 0.10 0.10 0.09 0.09 0.08
Wind_Speed
32 30 27 28 29 32 32 33 28 32 32 33 28 27 29 29 28 28 27 26 27 28 29 31 33 33 33 33 34 34 35 35 36 37 37 38 38 39 39 38 39 39 38 36
31 34 30 28 27 28 29 30 30 33 35 31 29 27 26 27 28 26 26 26 26 26 28 31 32 33 33 33 33 34 34 35 36 37 37 37 38 38 38 38 38 38 37 36
29 28 28 28 34 31 29 27 28 29 34 27 25 24 23 22 24 24 24 24 23 25 27 29 30 31 31 32 32 33 34 35 36 36 37 37 38 38 37 38 38 37 37 36
23 21 23 22 22 25 27 30 29 30 27 27 27 22 20 20 19 20 20 20 22 24 26 27 28 29 30 31 32 33 33 35 35 36 37 37 37 37 37 37 38 37 36 35
21 22 22 22 20 20 19 25 27 27 22 20 19 18 18 17 17 17 18 18 20 22 23 26 27 29 29 30 31 32 33 35 36 36 37 37 37 37 37 37 37 36 36 34
21 20 19 16 15 14 14 20 17 17 17 17 18 20 20 19 17 17 17 17 18 21 24 26 27 28 29 30 31 32 34 35 36 36 36 37 37 37 37 37 36 35 35 33
24 22 24 21 18 16 14 16 14 14 14 16 17 19 17 16 16 16 17 18 20 22 24 25 26 27 28 29 30 32 33 34 35 35 36 36 36 36 36 35 34 33 31 29
19 19 21 17 15 15 16 15 13 11 11 10 11 11 12 13 14 15 17 20 21 22 23 24 25 26 27 28 30 31 32 33 34 34 34 34 35 34 33 32 30 29 27 24
17 15 14 13 14 15 15 14 13 11 11 10 10 11 10 11 12 14 16 17 19 20 21 22 24 25 26 28 29 30 30 31 32 32 32 32 31 30 28 27 25 24 22 20
13 14 13 11 10 11 12 11 10 9 9 9 8 8 8 10 11 12 14 15 16 18 20 22 23 24 26 27 28 28 28 29 29 29 29 28 25 25 24 24 22 21 19 18
13 13 10 11 11 10 9 8 7 8 8 8 7 6 7 8 9 9 11 12 14 16 18 20 23 24 25 26 27 27 26 26 26 26 25 24 23 23 23 22 21 19 18 18
14 14 12 12 12 10 8 8 7 7 7 6 5 5 5 5 6 7 9 11 14 16 18 20 21 22 23 24 24 24 23 23 23 23 24 23 22 22 21 22 21 19 18 17
14 12 11 11 11 10 8 7 6 6 6 5 4 3 3 3 5 7 9 11 13 15 16 18 19 20 21 22 23 23 22 22 22 22 22 23 22 22 21 21 20 20 19 18
12 10 9 11 11 10 9 8 6 5 5 4 3 2 2 3 5 7 9 10 12 13 15 16 17 19 21 21 22 22 22 23 22 22 22 22 22 21 21 20 20 19 19 19
13 11 11 12 12 12 10 9 8 7 6 4 2 1 1 3 5 6 7 9 10 12 14 16 17 19 20 21 22 22 23 23 23 23 22 22 21 21 21 20 20 19 19 18
11 10 14 15 15 14 11 10 9 7 5 4 2 1 1 2 4 5 7 9 10 12 14 16 18 19 20 21 22 23 24 24 25 24 23 22 22 22 22 21 20 20 19 19
12 13 16 15 15 14 12 10 8 6 5 4 2 1 2 3 4 5 7 9 10 12 14 16 18 19 21 22 23 23 24 25 26 26 26 25 24 23 23 22 22 20 20 19
14 14 14 17 16 14 11 9 7 6 5 4 3 3 3 3 3 4 6 8 10 12 14 16 18 20 21 23 24 24 25 26 26 27 27 27 26 25 25 24 23 22 20 19
14 16 15 16 14 12 11 8 7 6 5 5 5 4 3 3 3 4 6 7 9 11 14 16 18 20 22 23 25 25 26 27 27 28 28 29 28 27 27 25 24 23 21 20
15 16 15 14 13 12 9 8 7 6 6 6 6 5 4 3 3 4 5 6 8 10 13 15 18 20 22 23 25 26 27 28 29 29 30 30 30 29 28 26 25 24 23 21
17 16 15 13 12 10 8 9 8 7 8 8 7 6 4 3 2 2 4 6 9 11 13 15 17 19 21 23 25 27 28 29 30 31 31 32 32 30 29 27 26 25 24 22
16 15 14 13 11 9 8 8 8 8 8 8 8 7 4 2 0 2 4 6 8 10 13 15 17 19 22 24 25 27 28 29 31 31 32 33 32 32 30 29 27 26 25 24
15 14 12 11 10 9 8 8 9 9 9 9 9 8 5 3 2 3 5 6 8 10 13 15 17 20 22 24 25 27 29 30 31 32 33 32 32 32 31 30 28 28 27 26
14 12 11 11 10 9 9 9 10 10 10 10 10 9 7 5 5 6 6 7 9 11 13 15 18 20 22 24 26 27 29 31 31 32 33 33 32 32 31 30 30 29 28 27
12 12 11 11 10 10 10 10 11 11 11 11 11 10 9 8 8 8 8 9 11 12 14 16 18 20 22 24 26 28 30 31 32 32 33 33 33 33 33 32 32 31 29 28
13 12 12 11 11 11 11 12 12 13 12 12 13 13 12 11 10 10 11 12 13 14 16 18 20 22 24 26 27 29 30 32 32 33 33 33 34 34 34 34 33 32 31 30
12 12 11 11 12 12 13 13 13 14 14 14 14 14 14 13 13 13 13 14 15 16 18 20 21 23 25 27 29 30 31 32 33 33 34 34 34 35 35 35 35 35 34 32
Wind_Direction
262 263 266 260 255 250 247 251 248 259 263 265 262 262 259 258 257 257 260 267 274 279 284 291 296 299 301 302 304 306 308 309 311 310 311 312 315 316 316 317 318 319 319 318
257 258 257 263 263 256 251 253 256 261 264 265 265 265 261 258 254 257 263 269 276 282 288 293 297 299 301 303 305 307 308 310 310 311 312 313 314 315 315 316 318 319 319 318
259 260 258 256 252 251 255 256 253 255 260 263 266 263 257 260 253 254 261 268 275 284 291 296 299 301 303 304 306 308 309 310 311 312 312 313 314 314 315 315 316 317 318 316
259 258 253 262 258 252 250 256 256 262 268 262 260 263 264 257 252 257 263 269 279 287 293 298 301 304 305 306 308 309 310 311 312 312 313 314 314 314 314 314 315 315 315 315
253 247 259 274 259 252 253 263 263 264 267 262 256 254 260 260 256 261 268 277 283 291 297 301 305 306 308 309 310 311 311 312 313 313 314 314 314 314 313 314 314 314 313 313
243 247 246 257 268 264 265 276 268 265 257 250 247 254 259 253 258 262 272 282 289 295 302 305 307 308 309 311 312 312 313 313 314 314 314 315 315 314 313 313 312 312 312 311
240 245 253 259 263 266 258 272 282 274 261 253 259 262 242 247 253 262 273 284 293 300 304 308 309 310 311 313 314 314 315 315 316 316 315 316 315 314 314 313 313 313 313 311
236 243 253 251 258 252 265 274 275 270 260 250 241 240 241 246 255 269 280 288 295 300 304 309 313 314 315 317 317 318 318 319 319 319 318 318 318 317 317 316 316 316 317 315
231 241 250 260 263 263 260 262 269 260 254 240 239 237 238 250 266 278 287 293 297 302 308 312 316 317 317 318 320 321 322 323 324 324 323 322 322 323 323 323 323 322 322 321
238 246 246 251 264 263 257 261 252 249 237 235 222 228 249 268 276 285 292 299 303 306 311 316 318 319 320 321 322 323 325 327 329 330 331 332 330 333 332 332 330 328 328 327
236 239 237 246 251 251 246 240 234 248 224 215 218 242 259 274 284 291 303 309 313 317 321 323 325 325 324 324 324 324 326 328 332 336 338 338 340 340 340 341 339 336 334 334
237 232 243 244 241 233 226 232 225 205 203 219 228 238 263 284 296 308 317 321 324 326 327 329 332 335 336 336 334 332 330 331 334 336 338 339 339 341 346 346 347 345 344 342
234 228 246 226 221 222 213 204 194 193 198 196 213 238 271 295 315 326 329 330 333 336 339 341 342 343 345 345 346 346 342 339 337 338 339 340 340 341 340 344 347 350 349 347
212 217 220 223 213 204 187 179 178 175 175 179 183 216 283 321 332 334 338 339 344 348 351 353 354 354 352 351 351 350 349 347 343 340 339 340 341 340 340 340 341 341 346 349
218 230 217 192 185 178 177 174 170 168 168 176 199 227 309 335 343 352 356 0 4 5 3 2 1 359 358 357 357 355 354 352 350 346 342 340 339 339 338 338 339 338 338 341
208 205 186 180 178 178 177 176 172 176 188 189 192 263 337 16 26 27 19 16 14 11 9 8 6 3 1 1 1 1 0 359 358 355 350 346 342 340 338 336 333 334 334 335
185 183 179 181 181 181 182 181 183 187 185 184 186 153 99 70 53 40 31 26 25 21 16 14 11 9 7 6 4 3 2 1 360 359 358 353 348 344 339 336 332 328 328 328
188 186 183 178 177 178 179 182 186 185 185 178 161 142 115 90 72 49 36 31 27 24 19 15 12 11 10 8 7 5 3 2 1 360 358 357 353 349 345 341 335 328 322 322
182 177 174 174 176 177 181 185 188 186 180 171 161 150 132 108 83 55 40 34 25 19 14 13 12 11 10 8 7 5 4 3 1 0 359 357 355 352 349 347 343 337 329 319
174 172 172 173 179 182 185 190 187 185 182 173 163 155 143 123 94 61 39 27 17 12 10 9 8 7 7 6 5 4 4 3 1 359 358 357 354 352 350 347 345 342 337 331
173 174 175 179 180 186 191 192 192 188 186 181 176 171 161 144 109 51 23 14 7 6 5 4 4 3 3 2 2 2 1 1 360 359 357 356 354 353 351 349 346 344 340 335
175 176 178 180 185 191 198 198 195 191 190 188 183 178 176 177 178 2 355 357 358 358 357 357 358 358 358 359 358 358 359 358 358 357 357 356 355 354 353 350 349 346 343 338
176 179 182 188 193 198 201 203 200 198 198 196 194 196 204 218 249 312 331 337 343 346 349 350 351 353 354 354 355 355 355 355 355 355 355 355 355 354 353 352 350 347 345 342
179 186 193 196 199 205 208 215 206 207 207 206 207 212 217 236 272 295 310 321 330 336 339 342 345 347 348 349 350 351 351 351 351 352 352 352 352 352 351 349 347 345 344 342
191 196 200 205 213 219 216 215 213 216 217 218 220 227 236 254 278 284 295 308 317 325 330 334 337 339 341 342 344 345 345 346 346 347 347 348 348 348 347 346 345 344 341 339
202 208 213 219 224 223 223 224 226 226 228 231 233 238 247 259 274 280 291 300 308 315 321 325 329 332 334 336 337 339 340 341 342 342 342 342 343 343 343 343 342 340 338 336
212 215 221 229 231 231 231 234 233 234 235 237 240 244 250 261 268 278 288 296 302 308 313 318 322 325 328 331 332 334 335 336 337 338 338 338 338 338 339 338 337 336 335 332